DMSP 5D-2 F13 DEB

Satellite information

Favourite Embed

Satellite Type and Status

DEBRISIN ORBIT

Key statistics

Satellite DMSP 5D-2 F13 DEB at a glance.

Uptime

11007

Days in orbit

Revolutions

≈ 14.5

Per day

Orbit

SSO

Sun Synchronous Orbit

Inclination

98.6

Latest

Satellite identification and parameters

Extended collection of information and parameters for DMSP 5D-2 F13 DEB.

Object identification

Identified? True

Debris? True

Object name: DMSP 5D-2 F13 DEB

International designator: 1995-015DD

Object number (NORAD): 40517

Object ID (CCSDS): 40517

Country: UNITED STATES OF AMERICA (US)

Current information (Y/N): Y

RCS size: SMALL

Orbital parameters

Period: 99.525 minutes

Inclination: 98.6023 deg

SMA: 7114.018 km

Apoapsis: 748.349 km

Periapsis: 723.416 km

RAAN: 170.6932 deg

Eccentricy: 0.0017524

Argument of periapsis: 265.7671 deg

Mean anomaly: 94.1518 deg

Mean motion: 14.46872763 rev/day

Mean motion (dot): 0.00007046 rev/day2

B* drag term: 0.0019498 1/REarth

Two-line elements (TLE)

Creation date: May 11, 2025, 7:06 a.m.

Reference frame: TEME

Reference center: EARTH

Epoch: May 10, 2025, 9:47 p.m. UTC

TLE line 0: 0 DMSP 5D-2 F13 DEB

TLE line 1: 1 40517U 95015DD 25130.90788817 .00007046 00000-0 19498-2 0 9996

TLE line 2: 2 40517 98.6023 170.6932 0017524 265.7671 94.1518 14.46872763530776

Live tracking on map

Real-time ground track for satellite DMSP 5D-2 F13 DEB.

In-orbit conjunctions

A list of the most updated potential collisions computed for object DMSP 5D-2 F13 DEB.

Target Orbit TCA Probability of collision Miss distance Type
COSMOS 1763 LEO 2025-04-01 03:46:17 0.0001385204 886.0 (m) PAYLOAD
METEOR 2-7 DEB LEO 2024-07-14 13:12:28 0.000400895 52.0 (m) DEBRIS

Associated space launch

Military meteorological satellite

DMSP 5D-2 F13 DEB was lifted into orbit during the mission ‘Atlas E | DMSP-5D2 F13’, on board a Atlas E space rocket.

The launch took place on March 24, 1995, 2:05 p.m. from Space Launch Complex 3W.

For more information about the launch, click the button.

Launch to space Atlas E | DMSP-5D2 F13
Atlas E | DMSP-5D2 F13

Agency: N/A

Status: Launch Successful

Launch date: March 24, 1995, 2:05 p.m. UTC

Rocket: Atlas E

Launch pad: Space Launch Complex 3W

Location: Vandenberg SFB, CA, USA

...

Latest news about this satellite

There are no fresh news available about this satellite. Check back as we update our databases every day.


Newsletter sign-up

Weekly statistics, charts and insights to help you stay on top of the space industry.